TimeEDT,TemperatureF,Dew PointF,Humidity,Sea Level PressureIn,VisibilityMPH,Wind Direction,Wind SpeedMPH,Gust SpeedMPH,PrecipitationIn,Events,Conditions,WindDirDegrees,DateUTC
12:44 AM,44.6,41.0,87,30.09,10.0,South,5.8,-,N/A,,Overcast,170,2013-03-12 04:44:00
12:53 AM,45.0,42.1,90,30.10,10.0,South,6.9,-,N/A,,Overcast,170,2013-03-12 04:53:00
1:53 AM,45.0,43.0,93,30.08,9.0,South,8.1,-,N/A,,Overcast,170,2013-03-12 05:53:00
2:53 AM,46.0,44.1,93,30.06,10.0,South,5.8,-,N/A,,Overcast,190,2013-03-12 06:53:00
3:53 AM,46.0,43.0,89,30.03,10.0,SSE,3.5,-,N/A,,Overcast,160,2013-03-12 07:53:00
4:02 AM,46.4,44.6,93,30.02,10.0,SSE,4.6,-,N/A,,Overcast,160,2013-03-12 08:02:00
4:53 AM,46.0,44.1,93,30.03,10.0,South,4.6,-,N/A,,Overcast,180,2013-03-12 08:53:00
5:53 AM,46.9,44.1,90,30.01,10.0,Calm,Calm,-,N/A,,Overcast,0,2013-03-12 09:53:00
6:45 AM,44.6,42.8,93,29.98,9.0,South,3.5,-,0.01,Rain,Light Rain,180,2013-03-12 10:45:00
6:53 AM,45.0,44.1,97,29.99,10.0,South,3.5,-,0.01,Rain,Light Rain,190,2013-03-12 10:53:00
7:53 AM,45.0,44.1,97,29.99,2.5,Calm,Calm,-,0.01,Rain,Light Rain,0,2013-03-12 11:53:00
8:03 AM,44.6,44.6,100,29.98,4.0,Calm,Calm,-,0.01,Rain,Light Rain,0,2013-03-12 12:03:00
8:53 AM,46.0,45.0,96,29.99,4.0,Calm,Calm,-,0.02,Rain,Light Rain,0,2013-03-12 12:53:00
9:53 AM,48.9,46.9,93,29.98,6.0,South,4.6,-,0.03,Rain,Light Rain,180,2013-03-12 13:53:00
10:53 AM,50.0,48.0,93,29.96,6.0,South,4.6,-,0.03,Rain,Light Rain,170,2013-03-12 14:53:00
11:22 AM,51.8,48.2,88,29.93,5.0,South,6.9,-,0.02,Rain,Light Rain,180,2013-03-12 15:22:00
11:53 AM,52.0,48.9,89,29.93,7.0,South,9.2,-,0.04,Rain,Light Rain,170,2013-03-12 15:53:00
12:53 PM,52.0,50.0,93,29.90,6.0,SSE,12.7,-,0.05,Rain,Light Rain,160,2013-03-12 16:53:00
1:53 PM,52.0,50.0,93,29.87,5.0,South,11.5,-,0.07,Rain,Light Rain,170,2013-03-12 17:53:00
2:53 PM,52.0,50.0,93,29.82,5.0,SSE,10.4,16.1,0.10,Rain,Light Rain,160,2013-03-12 18:53:00
3:51 PM,53.6,51.8,94,29.77,4.0,SSE,11.5,18.4,0.10,Rain,Rain,160,2013-03-12 19:51:00
3:53 PM,53.1,51.1,93,29.78,4.0,SSE,12.7,19.6,0.10,Rain,Rain,160,2013-03-12 19:53:00
4:28 PM,53.6,51.8,94,29.74,4.0,SSE,11.5,19.6,0.08,Rain,Light Rain,160,2013-03-12 20:28:00
4:41 PM,53.6,51.8,94,29.73,4.0,SSE,13.8,19.6,0.11,Rain,Rain,160,2013-03-12 20:41:00
4:53 PM,54.0,52.0,93,29.73,2.0,SSE,12.7,20.7,0.15,Rain,Rain,160,2013-03-12 20:53:00
5:12 PM,53.6,51.8,94,29.71,2.0,SSE,10.4,21.9,0.05,Rain,Rain,150,2013-03-12 21:12:00
5:21 PM,53.6,51.8,94,29.71,2.0,SSE,10.4,-,0.08,Rain,Rain,160,2013-03-12 21:21:00
5:35 PM,53.6,51.8,94,29.70,2.0,South,8.1,-,0.15,Rain,Heavy Rain,170,2013-03-12 21:35:00
5:53 PM,54.0,52.0,93,29.70,2.0,South,9.2,-,0.28,Rain,Heavy Rain,180,2013-03-12 21:53:00
6:53 PM,54.0,52.0,93,29.70,2.0,South,9.2,-,0.18,Rain,Light Rain,180,2013-03-12 22:53:00
7:53 PM,54.0,52.0,93,29.70,2.0,South,11.5,-,0.01,,Overcast,180,2013-03-12 23:53:00
8:48 PM,46.4,42.8,87,29.74,10.0,WNW,17.3,-,0.05,Rain,Light Rain,300,2013-03-13 00:48:00
8:53 PM,46.0,42.1,86,29.76,10.0,WNW,12.7,21.9,0.05,,Overcast,300,2013-03-13 00:53:00
9:53 PM,43.0,37.0,80,29.78,10.0,NW,11.5,19.6,N/A,,Overcast,310,2013-03-13 01:53:00
10:53 PM,44.1,34.0,68,29.80,10.0,NNW,8.1,-,N/A,,Overcast,330,2013-03-13 02:53:00
11:53 PM,42.1,32.0,67,29.80,10.0,NNW,12.7,23.0,N/A,,Clear,330,2013-03-13 03:53:00